Year,Month,Day,Hour,Minute,Value (Times are PST for barometer in hPa)
2008,01,03,00,00,1006.44
2008,01,03,00,01,1006.43
2008,01,03,00,02,1006.34
2008,01,03,00,03,1006.44
2008,01,03,00,04,1006.37
2008,01,03,00,05,1006.30
2008,01,03,00,06,1006.33
2008,01,03,00,07,1006.37
2008,01,03,00,08,1006.32
2008,01,03,00,09,1006.27
2008,01,03,00,10,1006.23
2008,01,03,00,11,1006.27
2008,01,03,00,12,1006.23
2008,01,03,00,13,1006.23
2008,01,03,00,14,1006.26
2008,01,03,00,15,1006.20
2008,01,03,00,16,1006.16
2008,01,03,00,17,1006.16
2008,01,03,00,18,1006.20
2008,01,03,00,19,1006.16
2008,01,03,00,20,1006.12
2008,01,03,00,21,1006.06
2008,01,03,00,22,1006.06
2008,01,03,00,23,1006.09
2008,01,03,00,24,1006.03
2008,01,03,00,25,1006.05
2008,01,03,00,26,1005.99
2008,01,03,00,27,1005.99
2008,01,03,00,28,1006.03
2008,01,03,00,29,1006.03
2008,01,03,00,30,1005.96
2008,01,03,00,31,1005.99
2008,01,03,00,32,1006.03
2008,01,03,00,33,1005.99
2008,01,03,00,34,1005.99
2008,01,03,00,35,1005.96
2008,01,03,00,36,1005.95
2008,01,03,00,37,1005.88
2008,01,03,00,38,1005.83
2008,01,03,00,39,1005.83
2008,01,03,00,40,1005.82
2008,01,03,00,41,1005.76
2008,01,03,00,42,1005.76
2008,01,03,00,43,1005.76
2008,01,03,00,44,1005.72
2008,01,03,00,45,1005.69
2008,01,03,00,46,1005.72
2008,01,03,00,47,1005.69
2008,01,03,00,48,1005.72
2008,01,03,00,49,1005.69
2008,01,03,00,50,1005.69
2008,01,03,00,51,1005.72
2008,01,03,00,52,1005.72
2008,01,03,00,53,1005.76
2008,01,03,00,54,1005.72
2008,01,03,00,55,1005.72
2008,01,03,00,56,1005.76
2008,01,03,00,57,1005.79
2008,01,03,00,58,1005.76
2008,01,03,00,59,1005.79
2008,01,03,01,00,1005.83
2008,01,03,01,01,1005.76
2008,01,03,01,02,1005.72
2008,01,03,01,03,1005.75
2008,01,03,01,04,1005.66
2008,01,03,01,05,1005.66
2008,01,03,01,06,1005.66
2008,01,03,01,07,1005.62
2008,01,03,01,08,1005.59
2008,01,03,01,09,1005.62
2008,01,03,01,10,1005.66
2008,01,03,01,11,1005.62
2008,01,03,01,12,1005.62
2008,01,03,01,13,1005.58
2008,01,03,01,14,1005.49
2008,01,03,01,15,1005.52
2008,01,03,01,16,1005.52
2008,01,03,01,17,1005.49
2008,01,03,01,18,1005.52
2008,01,03,01,19,1005.49
2008,01,03,01,20,1005.45
2008,01,03,01,21,1005.45
2008,01,03,01,22,1005.45
2008,01,03,01,23,1005.41
2008,01,03,01,24,1005.35
2008,01,03,01,25,1005.35
2008,01,03,01,26,1005.39
2008,01,03,01,27,1005.39
2008,01,03,01,28,1005.38
2008,01,03,01,29,1005.32
2008,01,03,01,30,1005.31
2008,01,03,01,31,1005.25
2008,01,03,01,32,1005.22
2008,01,03,01,33,1005.23
2008,01,03,01,34,1005.27
2008,01,03,01,35,1005.22
2008,01,03,01,36,1005.17
2008,01,03,01,37,1005.11
2008,01,03,01,38,1005.11
2008,01,03,01,39,1005.08
2008,01,03,01,40,1005.05
2008,01,03,01,41,1005.00
2008,01,03,01,42,1004.95
2008,01,03,01,43,1004.91
2008,01,03,01,44,1004.95
2008,01,03,01,45,1004.91
2008,01,03,01,46,1004.90
2008,01,03,01,47,1004.84
2008,01,03,01,48,1004.88
2008,01,03,01,49,1004.84
2008,01,03,01,50,1004.88
2008,01,03,01,51,1004.84
2008,01,03,01,52,1004.81
2008,01,03,01,53,1004.81
2008,01,03,01,54,1004.80
2008,01,03,01,55,1004.74
2008,01,03,01,56,1004.74
2008,01,03,01,57,1004.74
2008,01,03,01,58,1004.74
2008,01,03,01,59,1004.70
2008,01,03,02,00,1004.64
2008,01,03,02,01,1004.64
2008,01,03,02,02,1004.63
2008,01,03,02,03,1004.57
2008,01,03,02,04,1004.55
2008,01,03,02,05,1004.60
2008,01,03,02,06,1004.50
2008,01,03,02,07,1004.50
2008,01,03,02,08,1004.49
2008,01,03,02,09,1004.44
2008,01,03,02,10,1004.47
2008,01,03,02,11,1004.44
2008,01,03,02,12,1004.47
2008,01,03,02,13,1004.47
2008,01,03,02,14,1004.50
2008,01,03,02,15,1004.54
2008,01,03,02,16,1004.47
2008,01,03,02,17,1004.47
2008,01,03,02,18,1004.47
2008,01,03,02,19,1004.49
2008,01,03,02,20,1004.44
2008,01,03,02,21,1004.47
2008,01,03,02,22,1004.44
2008,01,03,02,23,1004.43
2008,01,03,02,24,1004.37
2008,01,03,02,25,1004.40
2008,01,03,02,26,1004.37
2008,01,03,02,27,1004.37
2008,01,03,02,28,1004.40
2008,01,03,02,29,1004.37
2008,01,03,02,30,1004.37
2008,01,03,02,31,1004.37
2008,01,03,02,32,1004.34
2008,01,03,02,33,1004.34
2008,01,03,02,34,1004.34
2008,01,03,02,35,1004.37
2008,01,03,02,36,1004.34
2008,01,03,02,37,1004.30
2008,01,03,02,38,1004.30
2008,01,03,02,39,1004.27
2008,01,03,02,40,1004.30
2008,01,03,02,41,1004.27
2008,01,03,02,42,1004.20
2008,01,03,02,43,1004.20
2008,01,03,02,44,1004.19
2008,01,03,02,45,1004.13
2008,01,03,02,46,1004.17
2008,01,03,02,47,1004.17
2008,01,03,02,48,1004.17
2008,01,03,02,49,1004.13
2008,01,03,02,50,1004.10
2008,01,03,02,51,1004.06
2008,01,03,02,52,1004.05
2008,01,03,02,53,1004.01
2008,01,03,02,54,1004.06
2008,01,03,02,55,1004.03
2008,01,03,02,56,1004.03
2008,01,03,02,57,1004.00
2008,01,03,02,58,1003.95
2008,01,03,02,59,1003.90
2008,01,03,03,00,1003.90
2008,01,03,03,01,1003.85
2008,01,03,03,02,1003.79
2008,01,03,03,03,1003.83
2008,01,03,03,04,1003.76
2008,01,03,03,05,1003.72
2008,01,03,03,06,1003.66
2008,01,03,03,07,1003.66
2008,01,03,03,08,1003.69
2008,01,03,03,09,1003.66
2008,01,03,03,10,1003.62
2008,01,03,03,11,1003.62
2008,01,03,03,12,1003.56
2008,01,03,03,13,1003.60
2008,01,03,03,14,1003.65
2008,01,03,03,15,1003.52
2008,01,03,03,16,1003.58
2008,01,03,03,17,1003.52
2008,01,03,03,18,1003.56
2008,01,03,03,19,1003.56
2008,01,03,03,20,1003.52
2008,01,03,03,21,1003.49
2008,01,03,03,22,1003.52
2008,01,03,03,23,1003.52
2008,01,03,03,24,1003.49
2008,01,03,03,25,1003.45
2008,01,03,03,26,1003.35
2008,01,03,03,27,1003.39
2008,01,03,03,28,1003.39
2008,01,03,03,29,1003.39
2008,01,03,03,30,1003.38
2008,01,03,03,31,1003.29
2008,01,03,03,32,1003.25
2008,01,03,03,33,1003.25
2008,01,03,03,34,1003.22
2008,01,03,03,35,1003.22
2008,01,03,03,36,1003.22
2008,01,03,03,37,1003.22
2008,01,03,03,38,1003.22
2008,01,03,03,39,1003.18
2008,01,03,03,40,1003.18
2008,01,03,03,41,1003.15
2008,01,03,03,42,1003.12
2008,01,03,03,43,1003.07
2008,01,03,03,44,1002.98
2008,01,03,03,45,1002.98
2008,01,03,03,46,1003.01
2008,01,03,03,47,1002.98
2008,01,03,03,48,1002.94
2008,01,03,03,49,1002.86
2008,01,03,03,50,1002.91
2008,01,03,03,51,1002.88
2008,01,03,03,52,1002.86
2008,01,03,03,53,1002.95
2008,01,03,03,54,1002.90
2008,01,03,03,55,1002.85
2008,01,03,03,56,1002.87
2008,01,03,03,57,1002.81
2008,01,03,03,58,1002.85
2008,01,03,03,59,1002.85
2008,01,03,04,00,1002.81
2008,01,03,04,01,1002.74
2008,01,03,04,02,1002.74
2008,01,03,04,03,1002.71
2008,01,03,04,04,1002.71
2008,01,03,04,05,1002.67
2008,01,03,04,06,1002.63
2008,01,03,04,07,1002.57
2008,01,03,04,08,1002.52
2008,01,03,04,09,1002.41
2008,01,03,04,10,1002.37
2008,01,03,04,11,1002.34
2008,01,03,04,12,1002.34
2008,01,03,04,13,1002.37
2008,01,03,04,14,1002.37
2008,01,03,04,15,1002.41
2008,01,03,04,16,1002.36
2008,01,03,04,17,1002.30
2008,01,03,04,18,1002.34
2008,01,03,04,19,1002.30
2008,01,03,04,20,1002.34
2008,01,03,04,21,1002.34
2008,01,03,04,22,1002.36
2008,01,03,04,23,1002.30
2008,01,03,04,24,1002.30
2008,01,03,04,25,1002.27
2008,01,03,04,26,1002.24
2008,01,03,04,27,1002.27
2008,01,03,04,28,1002.27
2008,01,03,04,29,1002.24
2008,01,03,04,30,1002.24
2008,01,03,04,31,1002.24
2008,01,03,04,32,1002.20
2008,01,03,04,33,1002.17
2008,01,03,04,34,1002.17
2008,01,03,04,35,1002.13
2008,01,03,04,36,1002.13
2008,01,03,04,37,1002.09
2008,01,03,04,38,1002.03
2008,01,03,04,39,1002.03
2008,01,03,04,40,1002.01
2008,01,03,04,41,1002.06
2008,01,03,04,42,1001.97
2008,01,03,04,43,1001.97
2008,01,03,04,44,1001.93
2008,01,03,04,45,1001.93
2008,01,03,04,46,1001.90
2008,01,03,04,47,1001.86
2008,01,03,04,48,1001.90
2008,01,03,04,49,1001.83
2008,01,03,04,50,1001.80
2008,01,03,04,51,1001.76
2008,01,03,04,52,1001.76
2008,01,03,04,53,1001.73
2008,01,03,04,54,1001.76
2008,01,03,04,55,1001.76
2008,01,03,04,56,1001.75
2008,01,03,04,57,1001.68
2008,01,03,04,58,1001.63
2008,01,03,04,59,1001.63
2008,01,03,05,00,1001.59
2008,01,03,05,01,1001.56
2008,01,03,05,02,1001.51
2008,01,03,05,03,1001.46
2008,01,03,05,04,1001.46
2008,01,03,05,05,1001.52
2008,01,03,05,06,1001.46
2008,01,03,05,07,1001.46
2008,01,03,05,08,1001.46
2008,01,03,05,09,1001.39
2008,01,03,05,10,1001.39
2008,01,03,05,11,1001.36
2008,01,03,05,12,1001.32
2008,01,03,05,13,1001.32
2008,01,03,05,14,1001.29
2008,01,03,05,15,1001.29
2008,01,03,05,16,1001.22
2008,01,03,05,17,1001.19
2008,01,03,05,18,1001.21
2008,01,03,05,19,1001.12
2008,01,03,05,20,1001.12
2008,01,03,05,21,1001.12
2008,01,03,05,22,1001.06
2008,01,03,05,23,1000.92
2008,01,03,05,24,1000.92
2008,01,03,05,25,1000.91
2008,01,03,05,26,1000.84
2008,01,03,05,27,1000.79
2008,01,03,05,28,1000.83
2008,01,03,05,29,1000.72
2008,01,03,05,30,1000.78
2008,01,03,05,31,1000.75
2008,01,03,05,32,1000.75
2008,01,03,05,33,1000.71
2008,01,03,05,34,1000.75
2008,01,03,05,35,1000.77
2008,01,03,05,36,1000.68
2008,01,03,05,37,1000.67
2008,01,03,05,38,1000.58
2008,01,03,05,39,1000.60
2008,01,03,05,40,1000.51
2008,01,03,05,41,1000.54
2008,01,03,05,42,1000.51
2008,01,03,05,43,1000.54
2008,01,03,05,44,1000.51
2008,01,03,05,45,1000.47
2008,01,03,05,46,1000.41
2008,01,03,05,47,1000.37
2008,01,03,05,48,1000.44
2008,01,03,05,49,1000.37
2008,01,03,05,50,1000.31
2008,01,03,05,51,1000.27
2008,01,03,05,52,1000.24
2008,01,03,05,53,1000.24
2008,01,03,05,54,1000.20
2008,01,03,05,55,1000.22
2008,01,03,05,56,1000.32
2008,01,03,05,57,1000.18
2008,01,03,05,58,1000.27
2008,01,03,05,59,1000.24
2008,01,03,06,00,1000.17
2008,01,03,06,01,1000.20
2008,01,03,06,02,1000.17
2008,01,03,06,03,1000.10
2008,01,03,06,04,1000.10
2008,01,03,06,05,1000.02
2008,01,03,06,06,999.97
2008,01,03,06,07,999.97
2008,01,03,06,08,1000.00
2008,01,03,06,09,1000.03
2008,01,03,06,10,1000.03
2008,01,03,06,11,999.99
2008,01,03,06,12,999.90
2008,01,03,06,13,999.87
2008,01,03,06,14,999.87
2008,01,03,06,15,999.87
2008,01,03,06,16,999.91
2008,01,03,06,17,999.97
2008,01,03,06,18,999.87
2008,01,03,06,19,999.90
2008,01,03,06,20,999.83
2008,01,03,06,21,999.83
2008,01,03,06,22,999.83
2008,01,03,06,23,999.78
2008,01,03,06,24,999.62
2008,01,03,06,25,999.56
2008,01,03,06,26,999.59
2008,01,03,06,27,999.63
2008,01,03,06,28,999.66
2008,01,03,06,29,999.70
2008,01,03,06,30,999.66
2008,01,03,06,31,999.72
2008,01,03,06,32,999.63
2008,01,03,06,33,999.59
2008,01,03,06,34,999.56
2008,01,03,06,35,999.49
2008,01,03,06,36,999.53
2008,01,03,06,37,999.49
2008,01,03,06,38,999.49
2008,01,03,06,39,999.53
2008,01,03,06,40,999.49
2008,01,03,06,41,999.46
2008,01,03,06,42,999.46
2008,01,03,06,43,999.46
2008,01,03,06,44,999.46
2008,01,03,06,45,999.43
2008,01,03,06,46,999.39
2008,01,03,06,47,999.36
2008,01,03,06,48,999.36
2008,01,03,06,49,999.29
2008,01,03,06,50,999.32
2008,01,03,06,51,999.26
2008,01,03,06,52,999.22
2008,01,03,06,53,999.22
2008,01,03,06,54,999.26
2008,01,03,06,55,999.28
2008,01,03,06,56,999.19
2008,01,03,06,57,999.22
2008,01,03,06,58,999.19
2008,01,03,06,59,999.12
2008,01,03,07,00,999.19
2008,01,03,07,01,999.19
2008,01,03,07,02,999.19
2008,01,03,07,03,999.15
2008,01,03,07,04,999.09
2008,01,03,07,05,999.09
2008,01,03,07,06,999.12
2008,01,03,07,07,999.09
2008,01,03,07,08,999.02
2008,01,03,07,09,998.95
2008,01,03,07,10,999.01
2008,01,03,07,11,998.92
2008,01,03,07,12,998.88
2008,01,03,07,13,998.85
2008,01,03,07,14,998.85
2008,01,03,07,15,998.88
2008,01,03,07,16,998.85
2008,01,03,07,17,998.85
2008,01,03,07,18,998.85
2008,01,03,07,19,998.87
2008,01,03,07,20,998.78
2008,01,03,07,21,998.75
2008,01,03,07,22,998.68
2008,01,03,07,23,998.61
2008,01,03,07,24,998.58
2008,01,03,07,25,998.58
2008,01,03,07,26,998.51
2008,01,03,07,27,998.44
2008,01,03,07,28,998.43
2008,01,03,07,29,998.34
2008,01,03,07,30,998.44
2008,01,03,07,31,998.41
2008,01,03,07,32,998.51
2008,01,03,07,33,998.58
2008,01,03,07,34,998.58
2008,01,03,07,35,998.60
2008,01,03,07,36,998.51
2008,01,03,07,37,998.54
2008,01,03,07,38,998.48
2008,01,03,07,39,998.41
2008,01,03,07,40,998.43
2008,01,03,07,41,998.27
2008,01,03,07,42,998.27
2008,01,03,07,43,998.20
2008,01,03,07,44,998.10
2008,01,03,07,45,998.07
2008,01,03,07,46,998.00
2008,01,03,07,47,997.97
2008,01,03,07,48,997.94
2008,01,03,07,49,997.90
2008,01,03,07,50,997.90
2008,01,03,07,51,997.90
2008,01,03,07,52,997.90
2008,01,03,07,53,997.83
2008,01,03,07,54,997.90
2008,01,03,07,55,997.83
2008,01,03,07,56,997.80
2008,01,03,07,57,997.79
2008,01,03,07,58,997.70
2008,01,03,07,59,997.70
2008,01,03,08,00,997.63
2008,01,03,08,01,997.60
2008,01,03,08,02,997.62
2008,01,03,08,03,997.53
2008,01,03,08,04,997.60
2008,01,03,08,05,997.56
2008,01,03,08,06,997.56
2008,01,03,08,07,997.63
2008,01,03,08,08,997.60
2008,01,03,08,09,997.56
2008,01,03,08,10,997.53
2008,01,03,08,11,997.45
2008,01,03,08,12,997.29
2008,01,03,08,13,997.33
2008,01,03,08,14,997.26
2008,01,03,08,15,997.22
2008,01,03,08,16,997.26
2008,01,03,08,17,997.22
2008,01,03,08,18,997.22
2008,01,03,08,19,997.16
2008,01,03,08,20,997.16
2008,01,03,08,21,997.16
2008,01,03,08,22,997.16
2008,01,03,08,23,997.19
2008,01,03,08,24,997.19
2008,01,03,08,25,997.16
2008,01,03,08,26,997.12
2008,01,03,08,27,997.12
2008,01,03,08,28,997.11
2008,01,03,08,29,996.99
2008,01,03,08,30,996.91
2008,01,03,08,31,996.82
2008,01,03,08,32,996.78
2008,01,03,08,33,996.78
2008,01,03,08,34,996.82
2008,01,03,08,35,996.75
2008,01,03,08,36,996.72
2008,01,03,08,37,996.72
2008,01,03,08,38,996.72
2008,01,03,08,39,996.61
2008,01,03,08,40,996.61
2008,01,03,08,41,996.61
2008,01,03,08,42,996.68
2008,01,03,08,43,996.72
2008,01,03,08,44,996.68
2008,01,03,08,45,996.65
2008,01,03,08,46,996.72
2008,01,03,08,47,996.68
2008,01,03,08,48,996.61
2008,01,03,08,49,996.65
2008,01,03,08,50,996.58
2008,01,03,08,51,996.55
2008,01,03,08,52,996.48
2008,01,03,08,53,996.41
2008,01,03,08,54,996.34
2008,01,03,08,55,996.34
2008,01,03,08,56,996.28
2008,01,03,08,57,996.24
2008,01,03,08,58,996.24
2008,01,03,08,59,996.21
2008,01,03,09,00,996.14
2008,01,03,09,01,996.14
2008,01,03,09,02,996.22
2008,01,03,09,03,996.31
2008,01,03,09,04,996.28
2008,01,03,09,05,996.34
2008,01,03,09,06,996.28
2008,01,03,09,07,996.31
2008,01,03,09,08,996.30
2008,01,03,09,09,996.21
2008,01,03,09,10,996.24
2008,01,03,09,11,996.24
2008,01,03,09,12,996.17
2008,01,03,09,13,996.21
2008,01,03,09,14,996.17
2008,01,03,09,15,996.21
2008,01,03,09,16,996.16
2008,01,03,09,17,996.04
2008,01,03,09,18,995.97
2008,01,03,09,19,995.97
2008,01,03,09,20,996.01
2008,01,03,09,21,995.97
2008,01,03,09,22,996.04
2008,01,03,09,23,996.04
2008,01,03,09,24,995.97
2008,01,03,09,25,996.04
2008,01,03,09,26,995.97
2008,01,03,09,27,995.97
2008,01,03,09,28,995.97
2008,01,03,09,29,995.97
2008,01,03,09,30,996.01
2008,01,03,09,31,995.93
2008,01,03,09,32,995.83
2008,01,03,09,33,995.70
2008,01,03,09,34,995.64
2008,01,03,09,35,995.73
2008,01,03,09,36,995.67
2008,01,03,09,37,995.67
2008,01,03,09,38,995.73
2008,01,03,09,39,995.67
2008,01,03,09,40,995.63
2008,01,03,09,41,995.60
2008,01,03,09,42,995.63
2008,01,03,09,43,995.60
2008,01,03,09,44,995.60
2008,01,03,09,45,995.56
2008,01,03,09,46,995.55
2008,01,03,09,47,995.46
2008,01,03,09,48,995.46
2008,01,03,09,49,995.43
2008,01,03,09,50,995.43
2008,01,03,09,51,995.43
2008,01,03,09,52,995.46
2008,01,03,09,53,995.40
2008,01,03,09,54,995.36
2008,01,03,09,55,995.40
2008,01,03,09,56,995.33
2008,01,03,09,57,995.29
2008,01,03,09,58,995.29
2008,01,03,09,59,995.23
2008,01,03,10,00,995.26
2008,01,03,10,01,995.16
2008,01,03,10,02,995.19
2008,01,03,10,03,995.23
2008,01,03,10,04,995.23
2008,01,03,10,05,995.16
2008,01,03,10,06,995.23
2008,01,03,10,07,995.16
2008,01,03,10,08,995.16
2008,01,03,10,09,995.12
2008,01,03,10,10,995.16
2008,01,03,10,11,995.12
2008,01,03,10,12,995.09
2008,01,03,10,13,995.06
2008,01,03,10,14,995.06
2008,01,03,10,15,995.06
2008,01,03,10,16,995.06
2008,01,03,10,17,995.02
2008,01,03,10,18,994.99
2008,01,03,10,19,994.92
2008,01,03,10,20,994.99
2008,01,03,10,21,995.02
2008,01,03,10,22,994.95
2008,01,03,10,23,994.85
2008,01,03,10,24,994.85
2008,01,03,10,25,994.82
2008,01,03,10,26,994.79
2008,01,03,10,27,994.79
2008,01,03,10,28,994.79
2008,01,03,10,29,994.72
2008,01,03,10,30,994.68
2008,01,03,10,31,994.72
2008,01,03,10,32,994.79
2008,01,03,10,33,994.75
2008,01,03,10,34,994.72
2008,01,03,10,35,994.75
2008,01,03,10,36,994.72
2008,01,03,10,37,994.68
2008,01,03,10,38,994.68
2008,01,03,10,39,994.64
2008,01,03,10,40,994.52
2008,01,03,10,41,994.55
2008,01,03,10,42,994.52
2008,01,03,10,43,994.52
2008,01,03,10,44,994.48
2008,01,03,10,45,994.48
2008,01,03,10,46,994.41
2008,01,03,10,47,994.41
2008,01,03,10,48,994.41
2008,01,03,10,49,994.45
2008,01,03,10,50,994.41
2008,01,03,10,51,994.31
2008,01,03,10,52,994.31
2008,01,03,10,53,994.24
2008,01,03,10,54,994.27
2008,01,03,10,55,994.15
2008,01,03,10,56,994.23
2008,01,03,10,57,994.14
2008,01,03,10,58,994.17
2008,01,03,10,59,994.07
2008,01,03,11,00,994.01
2008,01,03,11,01,994.04
2008,01,03,11,02,993.97
2008,01,03,11,03,994.01
2008,01,03,11,04,993.93
2008,01,03,11,05,993.85
2008,01,03,11,06,993.94
2008,01,03,11,07,993.91
2008,01,03,11,08,993.94
2008,01,03,11,09,993.87
2008,01,03,11,10,993.86
2008,01,03,11,11,993.75
2008,01,03,11,12,993.86
2008,01,03,11,13,993.73
2008,01,03,11,14,993.60
2008,01,03,11,15,993.57
2008,01,03,11,16,993.50
2008,01,03,11,17,993.50
2008,01,03,11,18,993.50
2008,01,03,11,19,993.47
2008,01,03,11,20,993.40
2008,01,03,11,21,993.36
2008,01,03,11,22,993.32
2008,01,03,11,23,993.22
2008,01,03,11,24,993.09
2008,01,03,11,25,993.05
2008,01,03,11,26,992.95
2008,01,03,11,27,992.86
2008,01,03,11,28,992.82
2008,01,03,11,29,992.86
2008,01,03,11,30,992.86
2008,01,03,11,31,992.86
2008,01,03,11,32,992.82
2008,01,03,11,33,992.79
2008,01,03,11,34,992.81
2008,01,03,11,35,992.65
2008,01,03,11,36,992.62
2008,01,03,11,37,992.62
2008,01,03,11,38,992.58
2008,01,03,11,39,992.55
2008,01,03,11,40,992.48
2008,01,03,11,41,992.52
2008,01,03,11,42,992.45
2008,01,03,11,43,992.42
2008,01,03,11,44,992.35
2008,01,03,11,45,992.28
2008,01,03,11,46,992.22
2008,01,03,11,47,992.31
2008,01,03,11,48,992.30
2008,01,03,11,49,992.14
2008,01,03,11,50,992.15
2008,01,03,11,51,992.25
2008,01,03,11,52,992.21
2008,01,03,11,53,992.18
2008,01,03,11,54,992.17
2008,01,03,11,55,992.08
2008,01,03,11,56,992.08
2008,01,03,11,57,992.03
2008,01,03,11,58,991.93
2008,01,03,11,59,991.84
2008,01,03,12,00,991.84
2008,01,03,12,01,991.74
2008,01,03,12,02,991.67
2008,01,03,12,03,991.67
2008,01,03,12,04,991.70
2008,01,03,12,05,991.64
2008,01,03,12,06,991.57
2008,01,03,12,07,991.57
2008,01,03,12,08,991.63
2008,01,03,12,09,991.49
2008,01,03,12,10,991.40
2008,01,03,12,11,991.40
2008,01,03,12,12,991.42
2008,01,03,12,13,991.23
2008,01,03,12,14,991.26
2008,01,03,12,15,991.16
2008,01,03,12,16,991.15
2008,01,03,12,17,991.05
2008,01,03,12,18,990.92
2008,01,03,12,19,990.82
2008,01,03,12,20,990.81
2008,01,03,12,21,990.65
2008,01,03,12,22,990.59
2008,01,03,12,23,990.61
2008,01,03,12,24,990.49
2008,01,03,12,25,990.51
2008,01,03,12,26,990.38
2008,01,03,12,27,990.35
2008,01,03,12,28,990.32
2008,01,03,12,29,990.27
2008,01,03,12,30,990.04
2008,01,03,12,31,990.01
2008,01,03,12,32,990.01
2008,01,03,12,33,990.07
2008,01,03,12,34,989.98
2008,01,03,12,35,989.91
2008,01,03,12,36,989.85
2008,01,03,12,37,989.97
2008,01,03,12,38,989.74
2008,01,03,12,39,989.70
2008,01,03,12,40,989.60
2008,01,03,12,41,989.54
2008,01,03,12,42,989.50
2008,01,03,12,43,989.46
2008,01,03,12,44,989.37
2008,01,03,12,45,989.30
2008,01,03,12,46,989.23
2008,01,03,12,47,989.27
2008,01,03,12,48,989.26
2008,01,03,12,49,989.15
2008,01,03,12,50,989.06
2008,01,03,12,51,989.03
2008,01,03,12,52,989.10
2008,01,03,12,53,989.09
2008,01,03,12,54,988.99
2008,01,03,12,55,988.90
2008,01,03,12,56,989.02
2008,01,03,12,57,988.93
2008,01,03,12,58,988.93
2008,01,03,12,59,988.86
2008,01,03,13,00,988.79
2008,01,03,13,01,988.79
2008,01,03,13,02,988.79
2008,01,03,13,03,988.79
2008,01,03,13,04,988.82
2008,01,03,13,05,988.66
2008,01,03,13,06,988.72
2008,01,03,13,07,988.66
2008,01,03,13,08,988.71
2008,01,03,13,09,988.61
2008,01,03,13,10,988.49
2008,01,03,13,11,988.52
2008,01,03,13,12,988.49
2008,01,03,13,13,988.48
2008,01,03,13,14,988.35
2008,01,03,13,15,988.32
2008,01,03,13,16,988.32
2008,01,03,13,17,988.34
2008,01,03,13,18,988.18
2008,01,03,13,19,988.11
2008,01,03,13,20,988.05
2008,01,03,13,21,988.06
2008,01,03,13,22,988.15
2008,01,03,13,23,988.10
2008,01,03,13,24,988.02
2008,01,03,13,25,988.15
2008,01,03,13,26,988.08
2008,01,03,13,27,988.13
2008,01,03,13,28,987.85
2008,01,03,13,29,988.10
2008,01,03,13,30,987.98
2008,01,03,13,31,987.95
2008,01,03,13,32,987.90
2008,01,03,13,33,987.81
2008,01,03,13,34,987.79
2008,01,03,13,35,987.88
2008,01,03,13,36,987.90
2008,01,03,13,37,987.71
2008,01,03,13,38,987.75
2008,01,03,13,39,987.84
2008,01,03,13,40,987.84
2008,01,03,13,41,987.83
2008,01,03,13,42,987.63
2008,01,03,13,43,987.54
2008,01,03,13,44,987.53
2008,01,03,13,45,987.37
2008,01,03,13,46,987.40
2008,01,03,13,47,987.40
2008,01,03,13,48,987.44
2008,01,03,13,49,987.40
2008,01,03,13,50,987.34
2008,01,03,13,51,987.34
2008,01,03,13,52,987.28
2008,01,03,13,53,987.36
2008,01,03,13,54,987.20
2008,01,03,13,55,987.22
2008,01,03,13,56,987.10
2008,01,03,13,57,987.13
2008,01,03,13,58,987.06
2008,01,03,13,59,987.12
2008,01,03,14,00,987.03
2008,01,03,14,01,986.96
2008,01,03,14,02,987.03
2008,01,03,14,03,986.93
2008,01,03,14,04,986.96
2008,01,03,14,05,986.95
2008,01,03,14,06,986.77
2008,01,03,14,07,986.85
2008,01,03,14,08,986.73
2008,01,03,14,09,986.75
2008,01,03,14,10,986.62
2008,01,03,14,11,986.73
2008,01,03,14,12,986.67
2008,01,03,14,13,986.79
2008,01,03,14,14,986.79
2008,01,03,14,15,986.78
2008,01,03,14,16,986.70
2008,01,03,14,17,986.82
2008,01,03,14,18,986.69
2008,01,03,14,19,986.66
2008,01,03,14,20,986.66
2008,01,03,14,21,986.66
2008,01,03,14,22,986.73
2008,01,03,14,23,986.68
2008,01,03,14,24,986.61
2008,01,03,14,25,986.88
2008,01,03,14,26,986.50
2008,01,03,14,27,986.59
2008,01,03,14,28,986.62
2008,01,03,14,29,986.60
2008,01,03,14,30,986.79
2008,01,03,14,31,986.78
2008,01,03,14,32,986.67
2008,01,03,14,33,986.76
2008,01,03,14,34,986.69
2008,01,03,14,35,986.76
2008,01,03,14,36,986.73
2008,01,03,14,37,986.67
2008,01,03,14,38,986.90
2008,01,03,14,39,986.84
2008,01,03,14,40,986.92
2008,01,03,14,41,986.80
2008,01,03,14,42,987.02
2008,01,03,14,43,986.93
2008,01,03,14,44,987.00
2008,01,03,14,45,987.03
2008,01,03,14,46,987.10
2008,01,03,14,47,987.10
2008,01,03,14,48,987.09
2008,01,03,14,49,987.01
2008,01,03,14,50,987.20
2008,01,03,14,51,987.14
2008,01,03,14,52,987.30
2008,01,03,14,53,987.37
2008,01,03,14,54,987.34
2008,01,03,14,55,987.34
2008,01,03,14,56,987.44
2008,01,03,14,57,987.40
2008,01,03,14,58,987.38
2008,01,03,14,59,987.46
2008,01,03,15,00,987.27
2008,01,03,15,01,987.45
2008,01,03,15,02,987.54
2008,01,03,15,03,987.58
2008,01,03,15,04,987.81
2008,01,03,15,05,987.74
2008,01,03,15,06,987.78
2008,01,03,15,07,987.74
2008,01,03,15,08,987.81
2008,01,03,15,09,987.75
2008,01,03,15,10,987.83
2008,01,03,15,11,987.72
2008,01,03,15,12,987.83
2008,01,03,15,13,987.74
2008,01,03,15,14,987.81
2008,01,03,15,15,987.80
2008,01,03,15,16,987.61
2008,01,03,15,17,987.56
2008,01,03,15,18,987.38
2008,01,03,15,19,987.50
2008,01,03,15,20,987.40
2008,01,03,15,21,987.34
2008,01,03,15,22,987.40
2008,01,03,15,23,987.35
2008,01,03,15,24,987.43
2008,01,03,15,25,987.31
2008,01,03,15,26,987.47
2008,01,03,15,27,987.43
2008,01,03,15,28,987.33
2008,01,03,15,29,987.23
2008,01,03,15,30,987.30
2008,01,03,15,31,987.36
2008,01,03,15,32,987.27
2008,01,03,15,33,987.28
2008,01,03,15,34,987.47
2008,01,03,15,35,987.51
2008,01,03,15,36,987.45
2008,01,03,15,37,987.56
2008,01,03,15,38,987.45
2008,01,03,15,39,987.61
2008,01,03,15,40,987.64
2008,01,03,15,41,987.71
2008,01,03,15,42,987.74
2008,01,03,15,43,987.74
2008,01,03,15,44,987.81
2008,01,03,15,45,987.67
2008,01,03,15,46,987.61
2008,01,03,15,47,987.68
2008,01,03,15,48,987.80
2008,01,03,15,49,987.63
2008,01,03,15,50,987.44
2008,01,03,15,51,987.71
2008,01,03,15,52,987.67
2008,01,03,15,53,987.65
2008,01,03,15,54,987.78
2008,01,03,15,55,987.82
2008,01,03,15,56,987.92
2008,01,03,15,57,988.02
2008,01,03,15,58,988.18
2008,01,03,15,59,988.17
2008,01,03,16,00,988.08
2008,01,03,16,01,988.06
2008,01,03,16,02,988.14
2008,01,03,16,03,988.06
2008,01,03,16,04,988.16
2008,01,03,16,05,988.35
2008,01,03,16,06,988.40
2008,01,03,16,07,988.48
2008,01,03,16,08,988.40
2008,01,03,16,09,988.51
2008,01,03,16,10,988.28
2008,01,03,16,11,988.49
2008,01,03,16,12,988.52
2008,01,03,16,13,988.42
2008,01,03,16,14,988.49
2008,01,03,16,15,988.50
2008,01,03,16,16,988.59
2008,01,03,16,17,988.60
2008,01,03,16,18,988.69
2008,01,03,16,19,988.66
2008,01,03,16,20,988.78